Location: Kumla
(59.1265°N, 15.1401°E)
Time: 15:20:26
(UTC+01:00)

Vanguard 3 - All Passes

Search period start: 03 December 2023 00:00
Search period end: 13 December 2023 00:00
Orbit: 507 x 3241 km, 33.3° (Epoch: 03 December)

Date Brightness Start Highest point End Pass type
(mag) Time Alt. Az. Time Alt. Az. Time Alt. Az.
07 Dec - 22:03:23 10° SSW 22:06:36 12° S 22:09:26 10° SSE visible
08 Dec - 20:45:39 10° S 20:50:00 12° S 20:53:44 10° SSE visible
08 Dec - 22:57:13 10° SSW 23:00:23 12° SSW 23:03:09 10° S visible
09 Dec - 19:29:47 10° S 19:33:08 11° SSE 19:36:10 10° SSE visible
09 Dec - 21:38:06 10° SSW 21:43:57 14° S 21:48:39 10° SSE visible
10 Dec - 20:20:07 10° SSW 20:27:09 15° S 20:32:50 10° SE visible
10 Dec - 22:32:19 10° SW 22:37:44 14° SSW 22:42:06 10° SSE visible
11 Dec - 19:03:22 10° S 19:10:06 14° SSE 19:15:49 10° SE visible
11 Dec - 21:13:14 10° SW 21:21:08 17° S 21:27:13 10° SSE visible
11 Dec - 23:28:16 10° SW 23:31:17 11° SSW 23:33:56 10° S visible
12 Dec - 17:49:21 10° SSE 17:52:56 11° SSE 17:56:16 10° SE visible
12 Dec - 19:55:01 10° SSW 20:04:09 18° S 20:11:20 10° SE visible
12 Dec - 22:07:42 10° SW 22:14:57 16° SSW 22:20:34 10° SSE visible
